Location: Dealu Mare
(46.0500°N, 22.8167°E)
Time: 21:54:53
(UTC+00:00)

NOSS 8 (H) - Pass Details

Date: 15 January 2026
Orbit: 355 x 1517 km, 63.3° (Epoch: 10 February)

Event Time Altitude Azimuth Distance (km) Brightness Sun altitude
Exits shadow 05:03:59 15° 315° (NW) 1,146 5.9 -10.7°
Maximum altitude 05:06:21 70° 233° (SW) 441 4.2 -10.4°
Drops below altitude 10° 05:09:53 10° 149° (SSE) 1,652 8.1 -9.8°
Sets 05:12:18 0° 147° (SSE) 2,689 9.3 -9.4°
